Simultaneous Nadir Overpasses (SNOs) Predictions

Prediction of SNOs between AQUA and METOP-A Satellite Orbit:

Table of predicted SNOs for the next 14.0 days since TLE Epoch: 11/28/2020
Index Date (AQUA) Time (AQUA) Lat,Lon (AQUA) SZA (AQUA ) Date (METOP-A) Time (METOP-A) Lat,Lon (METOP-A) SZA (METOP-A ) Distance(km) Time Diff (sec)
1 11/28/2020 23:27:37 -76.76, -5.63 81.59 11/28/2020 23:26:34 -76.78, -5.76 81.56 3.50 63
2 11/29/2020 00:17:06 76.82, 161.78 98.49 11/29/2020 00:17:13 76.83, 161.78 98.50 0.80 7
3 11/29/2020 01:06:39 -77.18, -31.89 81.10 11/29/2020 01:07:47 -77.16, -29.60 81.22 56.54 68
4 12/01/2020 19:01:52 -76.78, 60.73 81.11 12/01/2020 19:00:55 -76.80, 60.66 81.08 2.20 57
5 12/01/2020 19:51:21 76.85,-131.86 98.98 12/01/2020 19:51:34 76.85,-131.81 98.97 1.31 13
6 12/04/2020 14:36:08 -76.81, 127.06 80.67 12/04/2020 14:35:17 -76.81, 127.07 80.66 0.39 51
7 12/04/2020 15:25:36 76.83, -65.38 99.36 12/04/2020 15:25:56 76.86, -65.42 99.39 3.13 20
8 12/07/2020 10:10:23 -76.81,-166.48 80.33 12/07/2020 10:09:39 -76.82,-166.54 80.31 2.32 44
9 12/07/2020 10:59:52 76.88, 0.90 99.75 12/07/2020 11:00:18 76.87, 0.96 99.74 1.71 26
10 12/10/2020 05:44:38 -76.86,-100.23 79.99 12/10/2020 05:44:00 -76.83,-100.16 80.01 3.28 38
11 12/10/2020 06:34:06 76.88, 67.32 100.05 12/10/2020 06:34:39 76.87, 67.33 100.03 1.13 33
